[[{"header":{"parameterUnit":"m.s-1","parameterCategory":2,"la1":30.2991,"la2":30.254,"lo1":-89.0895,"lo2":-89.0444,"dy":0.0017,"dx":0.0017,"nx":28,"ny":28,"refTime":"2024-08-01T03:00:00:Z","depth":"0","parameterNumber":2,"parameterNumberName":"U-component_of_CURRENTS"},"data":[0,0,0,0,0,0,0,0,0,0,0,0,0,0,0,0,0,0,0,0,0,0,0,0,0,0,0,0,0,0,0,0,0,0,0,0,0,0,0,0,0,0,0,0,0,0,0,0,0,0,0,0,0,0,0,0,0,0,-0.1572,-0.1571,0,-0.1469,-0.1467,-0.1466,-0.1404,-0.1404,-0.1404,-0.1403,-0.1249,-0.1245,-0.1241,0,0,0,0,0,0,0,0,0,0,0,0,0,-0.1528,-0.1531,-0.1572,-0.1571,-0.157,-0.1469,-0.1467,-0.1466,-0.1404,-0.1404,-0.1404,-0.1403,-0.125,-0.1245,-0.1241,0,0,0,0,0,0,0,0,0,0,0,0,0,-0.1497,-0.1531,-0.1572,-0.1529,-0.1524,-0.1469,-0.1467,-0.1465,-0.1404,-0.1404,-0.1403,-0.1403,-0.1252,-0.1246,-0.124,-0.1205,0,0,-0.1221,-0.1219,0,0,0,0,0,0,0,0,-0.1499,-0.1498,-0.1536,-0.1531,-0.1526,-0.1451,-0.1395,-0.1376,-0.1404,-0.1447,-0.1403,-0.1403,-0.1313,-0.1302,-0.128,-0.1197,-0.1191,-0.1221,-0.1217,-0.1215,-0.1213,0,0,0,0,0,0,0,-0.1501,-0.1501,-0.1529,-0.1535,-0.1529,-0.145,-0.1447,-0.139,-0.1379,-0.1443,-0.1439,-0.1431,-0.131,-0.1286,-0.1276,-0.1189,-0.1221,-0.1216,-0.1212,-0.121,-0.1202,-0.1205,0,0,0,0,0,0,-0.153,-0.1505,-0.1532,-0.1526,-0.1515,-0.1452,-0.1448,-0.1473,-0.1381,-0.1368,-0.1431,-0.1429,-0.1297,-0.1283,-0.127,-0.1334,-0.1215,-0.1209,-0.1205,-0.1199,-0.1203,-0.1206,0,0,0,0,0,0,-0.153,-0.1534,-0.1536,-0.1512,-0.1507,-0.1455,-0.1482,-0.1471,-0.145,-0.1373,-0.1358,-0.1422,-0.1296,-0.1279,-0.1243,-0.1324,-0.1206,-0.1201,-0.1195,-0.12,-0.1205,-0.1391,0,0,0,0,0,0,-0.1529,-0.1536,-0.1553,-0.1516,-0.151,-0.1521,-0.1482,-0.147,-0.1447,-0.1442,-0.136,-0.1345,-0.1295,-0.1253,-0.1237,-0.1313,-0.1196,-0.119,-0.1197,-0.1203,-0.138,-0.1402,-0.142,0,0,0,0,0,-0.1529,-0.1555,-0.1556,-0.1558,-0.1541,-0.1522,-0.1511,-0.1469,-0.1447,-0.1447,-0.14,-0.1348,-0.1285,-0.1249,-0.123,-0.1307,-0.1187,-0.1195,-0.1202,-0.1371,-0.1397,-0.142,0,0,0,0,0,0,-0.1531,-0.155,-0.155,-0.1578,-0.1561,-0.1513,-0.15,-0.1475,-0.1435,-0.1427,-0.1356,-0.1339,-0.1349,-0.1295,-0.1258,-0.1329,-0.1241,-0.1246,-0.1377,-0.14,-0.142,-0.1426,-0.1191,0,0,0,0,0,-0.1547,-0.158,-0.1573,-0.1591,-0.1589,-0.1547,-0.1529,-0.1508,-0.147,-0.1452,-0.1401,-0.1367,-0.1366,-0.1354,-0.1322,-0.1332,-0.1283,-0.1383,-0.1403,-0.142,-0.1416,-0.1459,-0.1482,-0.1232,-0.1232,-0.1232,0,0,-0.1547,-0.1564,-0.1578,-0.1594,-0.1573,-0.1584,-0.1535,-0.1521,-0.1543,-0.144,-0.1442,-0.1414,-0.1381,-0.1413,-0.1417,-0.1378,-0.1458,-0.143,-0.1445,-0.1431,-0.147,-0.1494,-0.1515,-0.1237,-0.1236,-0.1235,0,0,-0.156,-0.1587,-0.1615,-0.1619,-0.1612,-0.16,-0.1605,-0.1573,-0.1575,-0.1565,-0.1538,-0.1568,-0.1502,-0.1546,-0.155,-0.1658,-0.1556,-0.1645,-0.1752,-0.1797,-0.1817,-0.1835,-0.1769,-0.178,-0.1664,-0.1665,-0.1665,0,-0.1555,-0.1601,-0.1611,-0.1638,-0.165,-0.1619,-0.1646,-0.165,-0.1612,-0.164,-0.1587,-0.1608,-0.1587,-0.1691,-0.1738,-0.1709,-0.1654,-0.1665,-0.1823,-0.184,-0.1854,-0.1783,-0.1792,-0.1675,-0.1673,-0.1672,-0.1671,0,-0.1592,-0.1624,-0.1636,-0.1684,-0.1706,-0.1712,-0.174,-0.1767,-0.1758,-0.1759,-0.1826,-0.1809,-0.1825,-0.186,-0.1819,-0.1948,-0.1844,-0.1838,-0.1762,-0.1891,-0.1806,-0.1813,-0.1689,-0.1685,-0.1682,-0.168,0,0,-0.1585,-0.165,-0.1652,-0.1696,-0.1732,-0.176,-0.1835,-0.1898,-0.1953,-0.195,-0.2018,-0.2079,-0.2056,-0.2062,-0.2055,-0.2108,-0.2173,-0.2011,-0.2009,-0.1941,-0.217,-0.205,-0.2043,-0.218,-0.2183,-0.2186,-0.2054,0,-0.1599,-0.1667,-0.1702,-0.1776,-0.1818,-0.1863,-0.1934,-0.2003,-0.2032,-0.2084,-0.2139,-0.2164,-0.214,-0.2144,-0.221,-0.2163,-0.2201,-0.2202,-0.2056,-0.205,-0.1928,-0.2054,-0.1921,-0.179,-0.2059,-0.206,-0.2061,0,-0.1622,-0.1675,-0.174,-0.1856,-0.1879,-0.1921,-0.2059,-0.2117,-0.2211,-0.2225,-0.2289,-0.2273,-0.2352,-0.2303,-0.2323,-0.2304,-0.2252,-0.2222,-0.2217,-0.2044,-0.1946,-0.1712,-0.1789,-0.1769,-0.2069,-0.2068,-0.2067,0,-0.1622,-0.1712,-0.1772,-0.1802,-0.1913,-0.1977,-0.2042,-0.2153,-0.2208,-0.2296,-0.2301,-0.2385,-0.2369,-0.2383,-0.2301,-0.2303,-0.227,-0.2273,-0.2123,-0.2108,-0.1936,-0.1902,-0.1976,-0.2315,-0.2315,-0.2316,-0.2316,0,-0.163,-0.1681,-0.1772,-0.1802,-0.1898,-0.1989,-0.2082,-0.2162,-0.2247,-0.228,-0.2346,-0.2355,-0.2384,-0.2356,-0.2316,-0.2203,-0.2282,-0.2145,-0.2098,-0.1991,-0.1965,-0.1888,-0.1917,-0.231,-0.2312,-0.2313,-0.2313,0,-0.1603,-0.1652,-0.1724,-0.1842,-0.1884,-0.195,-0.2066,-0.2118,-0.2204,-0.2243,-0.2255,-0.2307,-0.2246,-0.2241,-0.2212,-0.2173,-0.2069,-0.2064,-0.1875,-0.1812,-0.1666,-0.1709,-0.1711,-0.1669,-0.1884,-0.1881,-0.1878,0,-0.159,-0.1617,-0.1724,-0.1749,-0.1786,-0.1889,-0.1933,-0.2064,-0.2095,-0.2189,-0.2175,-0.2163,-0.2103,-0.2006,-0.1936,-0.1835,-0.1902,-0.1688,-0.173,-0.1652,-0.1668,-0.1724,-0.1695,-0.1542,-0.1536,-0.1532,-0.1529,0,-0.155,-0.1567,-0.1616,-0.1664,-0.1706,-0.1777,-0.1848,-0.1878,-0.1991,-0.2011,-0.2001,-0.1976,-0.1866,-0.1706,-0.1599,-0.1553,-0.1647,-0.1595,-0.1607,-0.1491,-0.1469,-0.1403,-0.1562,-0.149,-0.1494,-0.1497,-0.1499,-0.1501,-0.1483,-0.1492,-0.1522,-0.1564,-0.1604,-0.1622,-0.1619,-0.1674,-0.1698,-0.1675,-0.1763,-0.165,-0.1557,-0.1372,-0.1317,-0.1195,-0.1326,-0.1185,-0.1254,-0.1326,-0.1287,-0.1313,-0.1153,-0.1155,-0.1156,-0.1158,-0.1159,0,-0.1379,-0.139,-0.142,-0.1438,-0.1418,-0.1487,-0.1512,-0.1458,-0.1395,-0.1407,-0.1361,-0.1244,-0.1095,-0.1046,-0.0931,-0.0884,-0.0906,-0.0904,-0.098,-0.0977,-0.105,-0.1035,-0.0733,-0.0733,-0.0733,-0.0733,-0.0733,-0.0733,-0.1311,-0.1287,-0.1305,-0.1236,-0.1239,-0.1159,-0.1133,-0.1056,-0.1027,-0.0894,-0.0821,-0.0776,-0.0815,-0.0903,-0.0826,-0.0777,-0.0822,-0.0777,-0.087,-0.0939,-0.0972,-0.1004,-0.0999,-0.0694,-0.0695,-0.0724,-0.0725,-0.0725]},{"header":{"parameterUnit":"m.s-1","parameterCategory":2,"la1":30.2991,"la2":30.254,"lo1":-89.0895,"lo2":-89.0444,"dy":0.0017,"dx":0.0017,"nx":28,"ny":28,"refTime":"2024-08-01T03:00:00:Z","depth":"0","parameterNumber":3,"parameterNumberName":"V-component_of_CURRENTS"},"data":[0,0,0,0,0,0,0,0,0,0,0,0,0,0,0,0,0,0,0,0,0,0,0,0,0,0,0,0,0,0,0,0,0,0,0,0,0,0,0,0,0,0,0,0,0,0,0,0,0,0,0,0,0,0,0,0,0,0,0.0388,0.0389,0,0.0562,0.0564,0.0566,0.0644,0.0644,0.0643,0.0643,0.0775,0.0779,0.0782,0,0,0,0,0,0,0,0,0,0,0,0,0,0.0266,0.0267,0.0387,0.0389,0.0392,0.0562,0.0564,0.0567,0.0644,0.0644,0.0643,0.0643,0.0774,0.0778,0.0783,0,0,0,0,0,0,0,0,0,0,0,0,0,0.0368,0.0268,0.0387,0.045,0.0457,0.0561,0.0564,0.0567,0.0644,0.0644,0.0643,0.0643,0.0772,0.0778,0.0783,0.0829,0,0,0.0801,0.0803,0,0,0,0,0,0,0,0,0.0362,0.0373,0.0438,0.0446,0.0454,0.058,0.057,0.0652,0.0644,0.0575,0.0643,0.0643,0.0705,0.0716,0.0753,0.0835,0.0841,0.0801,0.0805,0.0807,0.0809,0,0,0,0,0,0,0,0.0355,0.0367,0.0458,0.0441,0.045,0.0519,0.0531,0.0587,0.0641,0.0581,0.0586,0.0604,0.0709,0.0747,0.0756,0.0843,0.0801,0.0806,0.081,0.0812,0.0913,0.0913,0,0,0,0,0,0,0.0324,0.0359,0.0452,0.0463,0.0404,0.052,0.0535,0.0541,0.0641,0.0656,0.0604,0.0607,0.0738,0.0749,0.0761,0.076,0.0807,0.0813,0.0816,0.0914,0.0913,0.0912,0,0,0,0,0,0,0.032,0.033,0.0445,0.0415,0.0434,0.0522,0.0529,0.0545,0.0579,0.0659,0.0673,0.0621,0.0738,0.0753,0.0802,0.0767,0.0815,0.082,0.0915,0.0914,0.0913,0.0795,0,0,0,0,0,0,0.0316,0.0327,0.0323,0.0412,0.0434,0.0499,0.053,0.0548,0.059,0.0595,0.0679,0.0691,0.0738,0.0793,0.0807,0.0776,0.0825,0.0916,0.0914,0.0913,0.08,0.079,0.0782,0,0,0,0,0,0.0311,0.0313,0.0321,0.0333,0.0424,0.05,0.0518,0.058,0.0591,0.0609,0.0658,0.0688,0.0793,0.0798,0.0815,0.0784,0.0917,0.0915,0.0913,0.0804,0.0792,0.0782,0,0,0,0,0,0,0.0266,0.0323,0.0335,0.0354,0.0414,0.0512,0.0538,0.0575,0.0632,0.0631,0.0697,0.0713,0.0737,0.0785,0.0788,0.0809,0.0853,0.0855,0.0764,0.0754,0.0745,0.0704,0.083,0,0,0,0,0,0.0249,0.0259,0.0329,0.0345,0.0369,0.0448,0.0486,0.0526,0.0589,0.0614,0.0668,0.0716,0.0747,0.0769,0.0816,0.0841,0.0871,0.0827,0.0818,0.081,0.0788,0.0856,0.0851,0.0907,0.0907,0.0907,0,0,0.0237,0.0269,0.0276,0.0335,0.0386,0.0406,0.047,0.0522,0.0523,0.0618,0.0638,0.0694,0.0748,0.0767,0.0781,0.08,0.0797,0.0808,0.08,0.0782,0.0853,0.0848,0.0843,0.0906,0.0906,0.0906,0,0,0.0224,0.0243,0.0248,0.0281,0.0344,0.0386,0.0392,0.0478,0.0498,0.0536,0.0583,0.0619,0.069,0.0712,0.073,0.0702,0.075,0.0714,0.0633,0.0699,0.0695,0.0692,0.0665,0.066,0.0706,0.0706,0.0706,0,0.0203,0.0209,0.0266,0.0274,0.0278,0.0362,0.0353,0.0394,0.0479,0.0482,0.0522,0.0607,0.0653,0.0654,0.0632,0.0677,0.0702,0.0667,0.0686,0.0684,0.0683,0.0657,0.0654,0.07,0.0701,0.0701,0.0702,0,0.0189,0.0188,0.0196,0.0209,0.0224,0.024,0.028,0.0297,0.0328,0.0373,0.0401,0.0486,0.0529,0.0544,0.0575,0.0574,0.0585,0.0669,0.0709,0.067,0.0645,0.0643,0.0692,0.0694,0.0696,0.0697,0,0,0.0145,0.0176,0.0171,0.0145,0.0179,0.0184,0.0168,0.0179,0.0167,0.0249,0.025,0.0297,0.0361,0.0385,0.0445,0.0491,0.0477,0.0559,0.0565,0.0519,0.0559,0.0596,0.0598,0.0583,0.0584,0.0584,0.0523,0,0.0109,0.0085,0.0107,0.0056,0.0038,0.0064,0.0035,0.0049,0.0094,0.0127,0.0203,0.0247,0.0295,0.0327,0.0372,0.0478,0.0478,0.0481,0.0615,0.0616,0.0647,0.0601,0.0669,0.0626,0.0522,0.0522,0.0522,0,0.0069,0.0053,0.0002,-0.0052,-0.0062,-0.0081,-0.0131,-0.0133,-0.0077,-0.0042,0.0023,0.012,0.0165,0.0251,0.035,0.0357,0.0416,0.0495,0.0497,0.0574,0.0653,0.0663,0.0629,0.0777,0.052,0.0521,0.0521,0,-0.0012,-0.0042,-0.0099,-0.0113,-0.0138,-0.0179,-0.0198,-0.018,-0.0193,-0.0118,-0.0091,0.0003,0.0063,0.0178,0.031,0.0339,0.044,0.0515,0.0576,0.0575,0.0678,0.0688,0.08,0.0561,0.0561,0.0561,0.0561,0,-0.0078,-0.0126,-0.014,-0.0168,-0.0268,-0.0257,-0.0323,-0.0325,-0.0288,-0.0301,-0.017,-0.0144,0.0062,0.0158,0.0272,0.0403,0.0401,0.0529,0.0576,0.0632,0.0639,0.0813,0.0869,0.0559,0.0559,0.056,0.056,0,-0.0147,-0.0145,-0.0221,-0.027,-0.0296,-0.0367,-0.0415,-0.0442,-0.0401,-0.0402,-0.038,-0.0255,-0.0123,0.0056,0.0241,0.0345,0.0576,0.052,0.0521,0.0571,0.079,0.0836,0.0937,0.1041,0.0572,0.0573,0.0573,0,-0.0176,-0.0209,-0.0303,-0.036,-0.038,-0.0459,-0.0509,-0.0506,-0.0524,-0.0481,-0.0488,-0.0351,-0.0247,0.0019,0.0256,0.0452,0.0585,0.0603,0.0686,0.0785,0.0871,0.0895,0.0978,0.0736,0.0738,0.074,0.0741,0,-0.0232,-0.026,-0.0327,-0.0443,-0.0516,-0.0604,-0.0663,-0.0702,-0.0689,-0.0664,-0.0617,-0.0511,-0.0234,0.0066,0.0343,0.0474,0.0742,0.0641,0.0786,0.1027,0.1021,0.115,0.0721,0.0755,0.0754,0.0753,0.0752,0.0752,-0.0276,-0.0347,-0.0425,-0.0546,-0.0629,-0.0726,-0.0787,-0.0829,-0.0858,-0.0793,-0.0696,-0.0432,-0.0035,0.04,0.0525,0.0878,0.0839,0.1017,0.1055,0.1061,0.1208,0.0755,0.084,0.0839,0.0839,0.0838,0.0837,0,-0.0327,-0.0403,-0.0518,-0.0656,-0.0752,-0.0773,-0.087,-0.0899,-0.093,-0.0761,-0.0641,-0.0025,0.0335,0.0711,0.1135,0.1306,0.1358,0.1397,0.1474,0.1538,0.1183,0.1245,0.1374,0.1374,0.1374,0.1374,0.1374,0.1374,-0.0356,-0.0474,-0.0545,-0.0725,-0.0805,-0.0902,-0.095,-0.0974,-0.086,-0.0527,-0.0088,0.0279,0.0835,0.1315,0.1677,0.1706,0.1879,0.1834,0.1916,0.1705,0.1673,0.1644,0.1719,0.1946,0.1946,0.2301,0.2305,0.2307]}],[{"header":{"parameterUnit":"m.s-1","parameterCategory":2,"la1":30.2991,"la2":30.254,"lo1":-89.0895,"lo2":-89.0444,"dy":0.0017,"dx":0.0017,"nx":28,"ny":28,"refTime":"2024-08-01T03:00:00:Z","depth":"2","parameterNumber":2,"parameterNumberName":"U-component_of_CURRENTS"},"data":[0,0,0,0,0,0,0,0,0,0,0,0,0,0,0,0,0,0,0,0,0,0,0,0,0,0,0,0,0,0,0,0,0,0,0,0,0,0,0,0,0,0,0,0,0,0,0,0,0,0,0,0,0,0,0,0,0,0,-0.2501,-0.2503,0,-0.2637,-0.2638,-0.2639,-0.2575,-0.2572,-0.2569,-0.2566,-0.2494,-0.2495,-0.2496,0,0,0,0,0,0,0,0,0,0,0,0,0,-0.2336,-0.2338,-0.2501,-0.2503,-0.2505,-0.2637,-0.2638,-0.264,-0.2576,-0.2572,-0.2568,-0.2564,-0.2494,-0.2495,-0.2496,0,0,0,0,0,0,0,0,0,0,0,0,0,-0.243,-0.2339,-0.2501,-0.2491,-0.2492,-0.2636,-0.2638,-0.264,-0.2576,-0.2572,-0.2567,-0.2563,-0.2493,-0.2495,-0.2497,-0.2601,0,0,-0.2501,-0.2502,0,0,0,0,0,0,0,0,-0.2424,-0.2435,-0.2491,-0.2492,-0.2493,-0.2587,-0.2554,-0.2618,-0.2578,-0.2541,-0.2566,-0.256,-0.2512,-0.2512,-0.2546,-0.2598,-0.2595,-0.2501,-0.2502,-0.2503,-0.2503,0,0,0,0,0,0,0,-0.2418,-0.243,-0.2552,-0.2493,-0.2495,-0.2532,-0.2538,-0.2567,-0.2545,-0.2544,-0.254,-0.2562,-0.251,-0.2545,-0.2543,-0.2594,-0.2501,-0.2503,-0.2504,-0.2504,-0.2611,-0.2613,0,0,0,0,0,0,-0.2406,-0.2424,-0.2547,-0.2556,-0.245,-0.2538,-0.2545,-0.2559,-0.2549,-0.2546,-0.2566,-0.2559,-0.2545,-0.2542,-0.254,-0.256,-0.2503,-0.2504,-0.2505,-0.2609,-0.2612,-0.2614,0,0,0,0,0,0,-0.2402,-0.2415,-0.2542,-0.2496,-0.2514,-0.2545,-0.2562,-0.2564,-0.2542,-0.2569,-0.2559,-0.2534,-0.2541,-0.2538,-0.2562,-0.2559,-0.2505,-0.2507,-0.2607,-0.261,-0.2613,-0.2664,0,0,0,0,0,0,-0.2396,-0.2413,-0.2415,-0.2495,-0.2517,-0.2616,-0.2567,-0.2571,-0.2568,-0.2558,-0.2541,-0.2533,-0.2537,-0.256,-0.2563,-0.256,-0.2508,-0.2605,-0.2608,-0.2612,-0.266,-0.2668,-0.2675,0,0,0,0,0,-0.239,-0.2402,-0.2414,-0.2429,-0.2519,-0.2619,-0.2634,-0.2638,-0.2571,-0.2591,-0.2581,-0.253,-0.2582,-0.2565,-0.2568,-0.2564,-0.2603,-0.2607,-0.2611,-0.2656,-0.2666,-0.2675,0,0,0,0,0,0,-0.2353,-0.2401,-0.2413,-0.2445,-0.2526,-0.2608,-0.2616,-0.2618,-0.2631,-0.2575,-0.2578,-0.2575,-0.2591,-0.2585,-0.2564,-0.2608,-0.2575,-0.2581,-0.2608,-0.2618,-0.2626,-0.261,-0.2509,0,0,0,0,0,-0.2348,-0.2334,-0.244,-0.2458,-0.2492,-0.2545,-0.2575,-0.2577,-0.2607,-0.2602,-0.2605,-0.2597,-0.2629,-0.2623,-0.2649,-0.2685,-0.2629,-0.268,-0.2687,-0.2694,-0.2686,-0.2659,-0.2662,-0.2628,-0.2628,-0.2628,0,0,-0.2347,-0.2359,-0.2362,-0.2444,-0.2486,-0.2583,-0.2547,-0.2571,-0.2627,-0.2595,-0.2629,-0.2625,-0.2648,-0.2693,-0.2695,-0.2673,-0.2664,-0.2699,-0.2705,-0.2693,-0.2664,-0.2666,-0.2669,-0.2631,-0.263,-0.263,0,0,-0.2335,-0.2342,-0.2343,-0.242,-0.2477,-0.2544,-0.2543,-0.2614,-0.2608,-0.2678,-0.2655,-0.2659,-0.271,-0.2733,-0.2751,-0.282,-0.2713,-0.2799,-0.2817,-0.2792,-0.2794,-0.2795,-0.2672,-0.2662,-0.2795,-0.2795,-0.2795,0,-0.2328,-0.236,-0.2372,-0.2428,-0.2499,-0.2528,-0.2611,-0.2653,-0.2716,-0.2715,-0.2681,-0.2743,-0.2742,-0.2806,-0.2821,-0.2834,-0.2759,-0.2778,-0.2799,-0.2799,-0.2799,-0.2673,-0.2661,-0.2798,-0.2798,-0.2797,-0.2797,0,-0.2359,-0.2401,-0.2411,-0.2496,-0.2582,-0.2638,-0.2738,-0.2765,-0.2754,-0.2789,-0.2808,-0.2832,-0.2853,-0.2858,-0.286,-0.2865,-0.2788,-0.2815,-0.2767,-0.2805,-0.267,-0.2656,-0.2802,-0.2801,-0.28,-0.28,0,0,-0.2291,-0.241,-0.2406,-0.2486,-0.2613,-0.2697,-0.2778,-0.288,-0.2888,-0.2921,-0.2929,-0.2991,-0.2931,-0.2948,-0.2932,-0.2907,-0.2825,-0.2843,-0.2841,-0.2703,-0.2672,-0.2595,-0.2571,-0.2841,-0.2841,-0.2841,-0.2556,0,-0.2312,-0.2434,-0.2479,-0.2636,-0.2749,-0.2814,-0.2906,-0.2977,-0.2992,-0.3003,-0.2984,-0.2996,-0.299,-0.296,-0.2943,-0.2852,-0.28,-0.2894,-0.2671,-0.2663,-0.2578,-0.256,-0.2411,-0.2145,-0.2542,-0.254,-0.2538,0,-0.232,-0.2419,-0.2564,-0.2735,-0.2778,-0.2861,-0.2978,-0.3054,-0.3074,-0.3065,-0.3055,-0.3018,-0.2979,-0.2967,-0.2833,-0.2877,-0.2773,-0.2705,-0.2694,-0.2598,-0.2564,-0.2185,-0.2105,-0.2515,-0.2516,-0.2518,-0.252,0,-0.2295,-0.2464,-0.2575,-0.265,-0.2856,-0.2884,-0.2967,-0.3037,-0.3045,-0.3065,-0.3008,-0.3013,-0.2908,-0.2862,-0.2712,-0.2749,-0.2523,-0.2568,-0.2401,-0.239,-0.2209,-0.2185,-0.248,-0.2481,-0.2481,-0.2482,-0.2483,0,-0.2313,-0.2391,-0.256,-0.264,-0.2748,-0.2879,-0.2927,-0.2995,-0.3001,-0.2945,-0.2995,-0.2907,-0.2866,-0.2731,-0.2672,-0.2456,-0.2488,-0.2373,-0.2326,-0.2218,-0.22,-0.2503,-0.251,-0.2471,-0.2474,-0.2476,-0.2478,0,-0.2233,-0.2356,-0.2491,-0.2684,-0.2736,-0.2794,-0.2881,-0.2871,-0.2913,-0.2817,-0.2796,-0.2741,-0.2573,-0.2519,-0.2369,-0.2323,-0.2209,-0.2137,-0.1965,-0.1907,-0.2085,-0.2098,-0.1898,-0.1894,-0.189,-0.1886,-0.1883,0,-0.2199,-0.2265,-0.2467,-0.2521,-0.2578,-0.2681,-0.2698,-0.2804,-0.2726,-0.2688,-0.2552,-0.2431,-0.2291,-0.2071,-0.1988,-0.1855,-0.2003,-0.1663,-0.1765,-0.2057,-0.2031,-0.2051,-0.2069,-0.1494,-0.1488,-0.1483,-0.148,0,-0.2128,-0.2162,-0.2269,-0.2387,-0.2426,-0.2482,-0.2472,-0.241,-0.243,-0.2375,-0.2211,-0.2142,-0.1917,-0.1718,-0.1589,-0.1531,-0.1699,-0.1562,-0.1884,-0.171,-0.1666,-0.1646,-0.1678,-0.1437,-0.1442,-0.1445,-0.1447,-0.1449,-0.2005,-0.2031,-0.2142,-0.2229,-0.2263,-0.2194,-0.2142,-0.2095,-0.2011,-0.1849,-0.1863,-0.1719,-0.165,-0.1371,-0.1263,-0.1198,-0.1333,-0.1321,-0.1339,-0.1361,-0.1411,-0.1369,-0.1084,-0.1086,-0.1088,-0.109,-0.1091,0,-0.1881,-0.1916,-0.1979,-0.2031,-0.1932,-0.2045,-0.1917,-0.1809,-0.1639,-0.1572,-0.148,-0.1268,-0.1119,-0.1081,-0.0886,-0.085,-0.0881,-0.0845,-0.0896,-0.0937,-0.0973,-0.101,-0.0572,-0.0571,-0.0569,-0.0568,0,0,-0.1817,-0.1825,-0.1868,-0.1711,-0.1686,-0.1516,-0.1412,-0.1315,-0.1222,-0.1107,-0.1044,-0.1087,-0.1051,-0.0817,-0.0749,-0.0626,-0.0786,-0.0595,-0.1009,-0.111,-0.1145,-0.1239,-0.1338,0,0,0,0,0]},{"header":{"parameterUnit":"m.s-1","parameterCategory":2,"la1":30.2991,"la2":30.254,"lo1":-89.0895,"lo2":-89.0444,"dy":0.0017,"dx":0.0017,"nx":28,"ny":28,"refTime":"2024-08-01T03:00:00:Z","depth":"2","parameterNumber":3,"parameterNumberName":"V-component_of_CURRENTS"},"data":[0,0,0,0,0,0,0,0,0,0,0,0,0,0,0,0,0,0,0,0,0,0,0,0,0,0,0,0,0,0,0,0,0,0,0,0,0,0,0,0,0,0,0,0,0,0,0,0,0,0,0,0,0,0,0,0,0,0,-0.0118,-0.0117,0,0.0011,0.0013,0.0015,0.0082,0.0082,0.0082,0.0082,0.0241,0.0245,0.0249,0,0,0,0,0,0,0,0,0,0,0,0,0,-0.021,-0.0209,-0.0118,-0.0117,-0.0115,0.0011,0.0013,0.0015,0.0083,0.0082,0.0082,0.0081,0.0239,0.0244,0.025,0,0,0,0,0,0,0,0,0,0,0,0,0,-0.0131,-0.0209,-0.0118,-0.007,-0.0064,0.001,0.0013,0.0016,0.0083,0.0082,0.0082,0.0081,0.0237,0.0244,0.0251,0.0301,0,0,0.0271,0.0274,0,0,0,0,0,0,0,0,-0.0135,-0.0127,-0.0078,-0.0073,-0.0067,0.0026,0.0038,0.0111,0.0083,0.0031,0.0082,0.0081,0.0169,0.0182,0.0213,0.0308,0.0315,0.0272,0.0276,0.0279,0.0281,0,0,0,0,0,0,0,-0.0141,-0.0132,-0.0062,-0.0077,-0.007,-0.0022,-0.0012,0.0053,0.0105,0.0036,0.004,0.0047,0.0173,0.0206,0.0217,0.0318,0.0272,0.0278,0.0282,0.0284,0.0498,0.0499,0,0,0,0,0,0,-0.017,-0.0137,-0.0066,-0.0059,-0.0108,-0.0021,-0.0009,0.0,0.0104,0.0118,0.0048,0.005,0.0195,0.0209,0.0223,0.0284,0.0279,0.0285,0.0289,0.0496,0.0498,0.05,0,0,0,0,0,0,-0.0173,-0.0165,-0.0072,-0.0099,-0.0084,-0.002,-0.0009,0.0003,0.0026,0.0112,0.0127,0.0056,0.0195,0.0213,0.0292,0.029,0.0288,0.0294,0.0494,0.0497,0.0499,0.0409,0,0,0,0,0,0,-0.0176,-0.0167,-0.017,-0.0101,-0.0084,-0.004,-0.0009,0.0006,0.003,0.0034,0.0124,0.0139,0.0196,0.0281,0.0298,0.03,0.03,0.0492,0.0495,0.0498,0.041,0.0408,0.0407,0,0,0,0,0,-0.0179,-0.0175,-0.0171,-0.0163,-0.0091,-0.0041,-0.0027,0.002,0.003,0.004,0.0115,0.0136,0.0312,0.0288,0.0308,0.0311,0.0491,0.0494,0.0498,0.0411,0.0408,0.0407,0,0,0,0,0,0,-0.0218,-0.0166,-0.016,-0.0142,-0.0107,-0.0032,-0.0014,0.001,0.0077,0.0083,0.016,0.0182,0.0246,0.0303,0.0274,0.0387,0.0404,0.0412,0.0331,0.033,0.0328,0.0293,0.0305,0,0,0,0,0,-0.0232,-0.021,-0.0167,-0.0152,-0.0139,-0.0083,-0.0059,-0.0031,0.0034,0.0062,0.0124,0.0204,0.028,0.0321,0.0392,0.0456,0.0472,0.0475,0.0473,0.047,0.046,0.0528,0.0529,0.0512,0.0512,0.0512,0,0,-0.0248,-0.0211,-0.0204,-0.0158,-0.0122,-0.011,-0.0067,-0.0036,-0.0015,0.007,0.0125,0.0194,0.0296,0.0367,0.0401,0.0412,0.0472,0.0475,0.0472,0.0462,0.0531,0.0532,0.0534,0.0514,0.0514,0.0513,0,0,-0.026,-0.0234,-0.0227,-0.0203,-0.0162,-0.0127,-0.0129,-0.0068,-0.0031,0.0031,0.0099,0.0172,0.0281,0.0357,0.0409,0.0446,0.0456,0.0464,0.0431,0.0496,0.0497,0.0498,0.0451,0.0449,0.0469,0.0468,0.0468,0,-0.0288,-0.027,-0.0219,-0.021,-0.0202,-0.0146,-0.0156,-0.0099,-0.002,0.0019,0.0035,0.0211,0.028,0.0384,0.039,0.0438,0.0438,0.042,0.0489,0.0491,0.0494,0.0446,0.0444,0.0465,0.0465,0.0465,0.0466,0,-0.0296,-0.0294,-0.0284,-0.026,-0.0244,-0.0234,-0.0179,-0.0143,-0.0099,-0.0038,0.0064,0.0176,0.0274,0.0312,0.0357,0.0421,0.0395,0.0467,0.0478,0.0489,0.0438,0.0438,0.0459,0.046,0.0462,0.0463,0,0,-0.0338,-0.0303,-0.0303,-0.0321,-0.0277,-0.0271,-0.0228,-0.0172,-0.014,-0.0042,0.0008,0.0149,0.0202,0.0266,0.0342,0.04,0.0389,0.0423,0.0429,0.0343,0.0441,0.049,0.0495,0.047,0.0471,0.0473,0.0369,0,-0.0371,-0.0386,-0.0347,-0.0378,-0.04,-0.034,-0.0311,-0.0248,-0.0166,-0.0097,0.0041,0.0122,0.0192,0.0227,0.0299,0.0376,0.0397,0.0404,0.0472,0.0471,0.0491,0.0502,0.0518,0.0438,0.037,0.037,0.037,0,-0.0403,-0.0414,-0.0452,-0.0464,-0.0466,-0.046,-0.0418,-0.0378,-0.0247,-0.0182,-0.0062,0.0035,0.0133,0.0194,0.0315,0.031,0.035,0.0408,0.0408,0.0492,0.0526,0.0436,0.0441,0.037,0.037,0.037,0.037,0,-0.0485,-0.0494,-0.0532,-0.0535,-0.0526,-0.0518,-0.05,-0.0399,-0.0365,-0.0231,-0.0205,-0.0042,0.0001,0.0128,0.0251,0.0267,0.0363,0.0411,0.0482,0.048,0.053,0.0533,0.0481,0.0482,0.0482,0.0482,0.0482,0,-0.0545,-0.0575,-0.0571,-0.0598,-0.0644,-0.0601,-0.0602,-0.0541,-0.0453,-0.0415,-0.0261,-0.0201,-0.0011,0.0086,0.0206,0.0337,0.033,0.0459,0.0485,0.0494,0.0496,0.0492,0.0495,0.0478,0.0479,0.048,0.048,0,-0.0615,-0.061,-0.067,-0.0682,-0.0685,-0.0717,-0.0699,-0.0683,-0.0596,-0.0547,-0.0521,-0.036,-0.0218,-0.0038,0.0139,0.0252,0.0399,0.0445,0.0388,0.0413,0.0451,0.0451,0.0475,0.0476,0.0477,0.0479,0.0479,0,-0.0645,-0.0682,-0.0744,-0.0791,-0.0791,-0.082,-0.083,-0.0758,-0.0733,-0.0622,-0.0608,-0.0471,-0.032,-0.0065,0.0173,0.0371,0.0401,0.0471,0.0552,0.0441,0.0463,0.046,0.0458,0.0522,0.0523,0.0524,0.0525,0,-0.0712,-0.073,-0.0784,-0.0888,-0.0927,-0.0962,-0.096,-0.0958,-0.0861,-0.0801,-0.0673,-0.0542,-0.0287,-0.0006,0.0248,0.0382,0.0457,0.0498,0.0428,0.0554,0.0489,0.051,0.0505,0.0534,0.0533,0.0532,0.0532,0.0531,-0.0755,-0.0819,-0.0896,-0.0992,-0.1041,-0.1062,-0.1066,-0.103,-0.0974,-0.0827,-0.071,-0.0463,-0.0237,0.019,0.0362,0.0522,0.0523,0.0587,0.0582,0.0577,0.0635,0.0581,0.0643,0.0643,0.0643,0.0642,0.0642,0,-0.0817,-0.0887,-0.0991,-0.1089,-0.1133,-0.1137,-0.1126,-0.108,-0.0988,-0.0807,-0.0634,-0.0316,0.0001,0.023,0.05,0.064,0.0624,0.066,0.0625,0.0617,0.061,0.0669,0.0686,0.0686,0.0686,0.0686,0,0,-0.0853,-0.0971,-0.1036,-0.1144,-0.1183,-0.1189,-0.1165,-0.1077,-0.0934,-0.0726,-0.0508,-0.023,0.0061,0.0258,0.0438,0.0572,0.0547,0.0579,0.0538,0.047,0.046,0.0574,0.0658,0,0,0,0,0]}],[{"header":{"parameterUnit":"m.s-1","parameterCategory":2,"la1":30.2991,"la2":30.254,"lo1":-89.0895,"lo2":-89.0444,"dy":0.0017,"dx":0.0017,"nx":28,"ny":28,"refTime":"2024-08-01T03:00:00:Z","depth":"4","parameterNumber":2,"parameterNumberName":"U-component_of_CURRENTS"},"data":[0,0,0,0,0,0,0,0,0,0,0,0,0,0,0,0,0,0,0,0,0,0,0,0,0,0,0,0,0,0,0,0,0,0,0,0,0,0,0,0,0,0,0,0,0,0,0,0,0,0,0,0,0,0,0,0,0,0,-0.1212,-0.1213,0,-0.1319,-0.132,-0.1322,-0.1379,-0.1379,-0.1379,-0.1379,-0.145,-0.1452,-0.1454,0,0,0,0,0,0,0,0,0,0,0,0,0,-0.1157,-0.1157,-0.1212,-0.1213,-0.1214,-0.1319,-0.1321,-0.1322,-0.1379,-0.1379,-0.1379,-0.1379,-0.145,-0.1452,-0.1454,0,0,0,0,0,0,0,0,0,0,0,0,0,-0.1215,-0.1157,-0.1211,-0.1254,-0.1259,-0.1319,-0.1321,-0.1323,-0.1379,-0.1379,-0.1379,-0.1379,-0.1449,-0.1452,-0.1455,-0.1474,0,0,-0.1463,-0.1465,0,0,0,0,0,0,0,0,-0.1212,-0.1217,-0.1246,-0.1251,-0.1256,-0.1334,-0.1328,-0.1371,-0.1379,-0.1335,-0.1379,-0.1379,-0.1407,-0.1414,-0.1436,-0.1477,-0.148,-0.1464,-0.1465,-0.1467,-0.1468,0,0,0,0,0,0,0,-0.1207,-0.1213,-0.1256,-0.1248,-0.1254,-0.1302,-0.131,-0.1337,-0.137,-0.1339,-0.1343,-0.1352,-0.141,-0.1434,-0.1438,-0.1481,-0.1464,-0.1466,-0.1468,-0.1469,-0.1593,-0.1594,0,0,0,0,0,0,-0.1186,-0.1209,-0.1252,-0.1259,-0.1232,-0.1303,-0.1311,-0.131,-0.1371,-0.138,-0.1352,-0.1354,-0.1429,-0.1435,-0.1441,-0.1522,-0.1467,-0.1469,-0.1471,-0.1591,-0.1593,-0.1595,0,0,0,0,0,0,-0.1184,-0.1188,-0.1248,-0.1236,-0.1247,-0.1303,-0.1302,-0.1313,-0.1356,-0.1381,-0.139,-0.1387,-0.1429,-0.1437,-0.1487,-0.1523,-0.1471,-0.1473,-0.159,-0.1592,-0.1594,-0.1649,0,0,0,0,0,0,-0.1182,-0.1187,-0.1193,-0.1234,-0.1246,-0.1292,-0.1302,-0.1315,-0.136,-0.1365,-0.1413,-0.1419,-0.1429,-0.1482,-0.149,-0.1526,-0.1476,-0.1588,-0.1591,-0.1593,-0.1645,-0.1653,-0.1659,0,0,0,0,0,-0.1179,-0.1182,-0.1192,-0.1198,-0.1247,-0.1292,-0.1304,-0.1345,-0.1362,-0.1384,-0.1422,-0.1419,-0.1506,-0.1486,-0.1494,-0.1532,-0.1586,-0.159,-0.1593,-0.1642,-0.1651,-0.1659,0,0,0,0,0,0,-0.1169,-0.119,-0.1201,-0.1212,-0.1253,-0.1302,-0.1329,-0.1358,-0.1408,-0.1416,-0.1441,-0.145,-0.1508,-0.1511,-0.1489,-0.1576,-0.1545,-0.155,-0.1579,-0.1588,-0.1595,-0.1585,-0.1478,0,0,0,0,0,-0.1165,-0.117,-0.1206,-0.122,-0.1238,-0.1288,-0.1317,-0.1345,-0.1388,-0.1412,-0.1448,-0.1485,-0.1527,-0.1549,-0.1581,-0.1628,-0.1614,-0.1656,-0.1664,-0.167,-0.1667,-0.1667,-0.1674,-0.1606,-0.1606,-0.1606,0,0,-0.1166,-0.1179,-0.1184,-0.1218,-0.1253,-0.1294,-0.1307,-0.1352,-0.1398,-0.141,-0.1484,-0.1513,-0.1546,-0.1603,-0.1629,-0.1611,-0.1687,-0.1674,-0.1679,-0.1673,-0.1672,-0.1678,-0.1683,-0.1609,-0.1608,-0.1608,0,0,-0.1168,-0.1182,-0.1188,-0.1223,-0.1271,-0.1309,-0.1325,-0.1384,-0.1422,-0.1488,-0.1514,-0.1554,-0.1625,-0.1649,-0.1672,-0.1733,-0.1725,-0.1758,-0.1788,-0.1789,-0.1794,-0.1798,-0.1805,-0.181,-0.176,-0.176,-0.176,0,-0.1171,-0.1179,-0.1203,-0.1228,-0.1263,-0.1317,-0.1352,-0.1404,-0.1477,-0.15,-0.1514,-0.1608,-0.164,-0.1697,-0.1738,-0.1747,-0.1755,-0.1753,-0.1796,-0.18,-0.1803,-0.181,-0.1814,-0.1763,-0.1763,-0.1763,-0.1762,0,-0.118,-0.1198,-0.1211,-0.1257,-0.1303,-0.1341,-0.1409,-0.1463,-0.1515,-0.155,-0.1615,-0.1658,-0.1703,-0.1736,-0.1771,-0.1822,-0.1825,-0.1805,-0.177,-0.1813,-0.1818,-0.1821,-0.1768,-0.1767,-0.1766,-0.1765,0,0,-0.1148,-0.1203,-0.121,-0.1234,-0.132,-0.1355,-0.1438,-0.1507,-0.1546,-0.1613,-0.1653,-0.1741,-0.1751,-0.1777,-0.1812,-0.1835,-0.1888,-0.1853,-0.1851,-0.1853,-0.1911,-0.175,-0.1737,-0.1887,-0.1888,-0.1888,-0.191,0,-0.1149,-0.1191,-0.1226,-0.1287,-0.1318,-0.1393,-0.1459,-0.1531,-0.1592,-0.1646,-0.1685,-0.1738,-0.1771,-0.1803,-0.1832,-0.1886,-0.1898,-0.1885,-0.1875,-0.1874,-0.1719,-0.1735,-0.189,-0.1912,-0.1913,-0.1913,-0.1914,0,-0.1135,-0.1171,-0.1225,-0.129,-0.131,-0.1365,-0.1465,-0.153,-0.1615,-0.1651,-0.1699,-0.1735,-0.181,-0.1812,-0.1887,-0.1888,-0.1907,-0.1927,-0.1927,-0.1753,-0.1717,-0.1857,-0.1919,-0.1919,-0.1918,-0.1918,-0.1918,0,-0.1093,-0.1159,-0.1204,-0.1233,-0.1329,-0.1372,-0.1435,-0.1528,-0.1579,-0.1658,-0.1701,-0.1752,-0.181,-0.1835,-0.1895,-0.191,-0.1947,-0.1952,-0.1808,-0.1798,-0.1915,-0.191,-0.1962,-0.1962,-0.1962,-0.1962,-0.1961,0,-0.1061,-0.1091,-0.1189,-0.1214,-0.1267,-0.1348,-0.1412,-0.1475,-0.1564,-0.1618,-0.1702,-0.1747,-0.1828,-0.1865,-0.1889,-0.1851,-0.193,-0.1807,-0.1783,-0.1941,-0.1939,-0.1918,-0.1912,-0.1962,-0.1962,-0.1962,-0.1962,0,-0.0993,-0.1057,-0.1109,-0.1214,-0.1246,-0.1292,-0.1401,-0.1444,-0.1544,-0.1626,-0.1659,-0.1772,-0.1809,-0.1838,-0.1879,-0.1835,-0.1808,-0.1762,-0.1931,-0.1918,-0.1671,-0.1669,-0.1619,-0.1613,-0.1608,-0.1604,-0.16,0,-0.096,-0.0984,-0.11,-0.1126,-0.1173,-0.1252,-0.1305,-0.1419,-0.1474,-0.163,-0.1662,-0.1736,-0.1788,-0.1709,-0.1748,-0.1702,-0.1681,-0.1666,-0.1669,-0.1648,-0.1632,-0.1637,-0.1642,-0.1593,-0.1591,-0.159,-0.1589,0,-0.0897,-0.095,-0.0992,-0.1053,-0.1114,-0.1181,-0.127,-0.1303,-0.1448,-0.1557,-0.1608,-0.1613,-0.1634,-0.1623,-0.157,-0.1552,-0.1677,-0.1615,-0.1626,-0.1629,-0.1617,-0.1606,-0.1616,-0.1572,-0.1574,-0.1576,-0.1577,0,-0.0849,-0.0862,-0.0921,-0.0958,-0.103,-0.1087,-0.1152,-0.1224,-0.1295,-0.1474,-0.1484,-0.1554,-0.1631,-0.1544,-0.1512,-0.1447,-0.144,-0.1415,-0.1437,-0.1456,-0.1383,-0.1342,-0.1183,0,0,0,0,0,-0.0798,-0.0792,-0.0816,-0.0866,-0.0933,-0.0982,-0.1114,-0.1192,-0.135,-0.1344,-0.1405,-0.1407,-0.1371,-0.1403,-0.1297,-0.142,-0.1432,-0.1293,-0.1413,-0.1478,-0.1498,-0.1422,0,0,0,0,0,0,-0.0761,-0.0777,-0.0782,-0.0775,-0.0792,-0.0876,-0.0964,-0.1077,-0.1082,-0.1231,-0.1206,-0.1306,-0.1271,-0.1384,-0.1259,-0.1261,-0.1307,-0.1324,-0.132,-0.1467,-0.1485,-0.1501,-0.143,0,0,0,0,0]},{"header":{"parameterUnit":"m.s-1","parameterCategory":2,"la1":30.2991,"la2":30.254,"lo1":-89.0895,"lo2":-89.0444,"dy":0.0017,"dx":0.0017,"nx":28,"ny":28,"refTime":"2024-08-01T03:00:00:Z","depth":"4","parameterNumber":3,"parameterNumberName":"V-component_of_CURRENTS"},"data":[0,0,0,0,0,0,0,0,0,0,0,0,0,0,0,0,0,0,0,0,0,0,0,0,0,0,0,0,0,0,0,0,0,0,0,0,0,0,0,0,0,0,0,0,0,0,0,0,0,0,0,0,0,0,0,0,0,0,-0.0301,-0.0301,0,-0.0287,-0.0287,-0.0286,-0.0249,-0.0248,-0.0248,-0.0247,-0.0183,-0.0182,-0.0181,0,0,0,0,0,0,0,0,0,0,0,0,0,-0.0243,-0.0244,-0.0301,-0.0301,-0.0301,-0.0287,-0.0287,-0.0286,-0.0249,-0.0248,-0.0247,-0.0247,-0.0184,-0.0183,-0.0181,0,0,0,0,0,0,0,0,0,0,0,0,0,-0.025,-0.0245,-0.0301,-0.0282,-0.0281,-0.0287,-0.0287,-0.0286,-0.0249,-0.0248,-0.0247,-0.0246,-0.0184,-0.0183,-0.0181,-0.0187,0,0,-0.0176,-0.0175,0,0,0,0,0,0,0,0,-0.025,-0.0252,-0.0285,-0.0284,-0.0282,-0.0271,-0.0243,-0.0252,-0.0249,-0.0258,-0.0247,-0.0246,-0.0211,-0.0207,-0.0203,-0.0184,-0.0181,-0.0175,-0.0174,-0.0174,-0.0173,0,0,0,0,0,0,0,-0.0249,-0.0252,-0.0292,-0.0285,-0.0283,-0.0258,-0.0258,-0.0244,-0.0236,-0.0257,-0.0255,-0.0258,-0.0209,-0.0205,-0.0201,-0.0181,-0.0175,-0.0174,-0.0173,-0.0172,-0.0183,-0.0184,0,0,0,0,0,0,-0.0261,-0.0252,-0.0293,-0.0292,-0.0267,-0.026,-0.026,-0.0273,-0.0237,-0.0232,-0.0259,-0.0257,-0.0208,-0.0203,-0.0199,-0.0219,-0.0174,-0.0172,-0.0171,-0.0181,-0.0183,-0.0185,0,0,0,0,0,0,-0.026,-0.0265,-0.0293,-0.0273,-0.0275,-0.0262,-0.0277,-0.0273,-0.027,-0.024,-0.0233,-0.026,-0.0207,-0.0201,-0.0197,-0.0215,-0.0171,-0.017,-0.018,-0.0182,-0.0184,-0.0249,0,0,0,0,0,0,-0.0258,-0.0265,-0.0277,-0.0275,-0.0277,-0.0306,-0.0278,-0.0274,-0.0275,-0.0271,-0.0238,-0.0231,-0.0206,-0.02,-0.0195,-0.0212,-0.0168,-0.0178,-0.0181,-0.0183,-0.0246,-0.0253,-0.026,0,0,0,0,0,-0.0256,-0.0282,-0.0278,-0.0283,-0.0295,-0.0308,-0.0306,-0.0291,-0.0276,-0.0283,-0.0262,-0.0233,-0.0212,-0.02,-0.0194,-0.021,-0.0177,-0.018,-0.0183,-0.0242,-0.0252,-0.026,0,0,0,0,0,0,-0.0263,-0.028,-0.0276,-0.0305,-0.0309,-0.0302,-0.0309,-0.0298,-0.0288,-0.0281,-0.0247,-0.024,-0.0247,-0.0222,-0.0209,-0.0223,-0.0191,-0.0193,-0.0238,-0.0247,-0.0254,-0.0249,-0.0167,0,0,0,0,0,-0.0272,-0.0295,-0.0302,-0.0325,-0.0329,-0.0319,-0.0321,-0.0312,-0.0304,-0.0298,-0.0279,-0.0261,-0.0257,-0.0246,-0.0238,-0.024,-0.018,-0.0249,-0.0256,-0.0262,-0.0256,-0.0206,-0.0208,-0.0194,-0.0194,-0.0194,0,0,-0.0283,-0.0294,-0.0307,-0.0327,-0.0326,-0.0343,-0.0317,-0.0327,-0.034,-0.0294,-0.0304,-0.0289,-0.0266,-0.0274,-0.0274,-0.0252,-0.0229,-0.0266,-0.0272,-0.0262,-0.0209,-0.021,-0.0211,-0.0196,-0.0196,-0.0196,0,0,-0.0313,-0.0324,-0.035,-0.0358,-0.0366,-0.0363,-0.0369,-0.0368,-0.0366,-0.0377,-0.0352,-0.0349,-0.0336,-0.0325,-0.0316,-0.0359,-0.0276,-0.0358,-0.0379,-0.0332,-0.0332,-0.0331,-0.0224,-0.0214,-0.0353,-0.0353,-0.0353,0,-0.0321,-0.0359,-0.0358,-0.0382,-0.0394,-0.0376,-0.0402,-0.0402,-0.04,-0.0402,-0.0389,-0.0376,-0.0362,-0.0364,-0.0381,-0.0375,-0.0308,-0.0347,-0.0339,-0.0337,-0.0335,-0.0226,-0.0214,-0.0356,-0.0356,-0.0355,-0.0355,0,-0.0368,-0.0397,-0.0413,-0.0439,-0.045,-0.047,-0.0472,-0.048,-0.0473,-0.0466,-0.0472,-0.0451,-0.0438,-0.044,-0.0421,-0.0411,-0.0352,-0.0359,-0.0312,-0.034,-0.0224,-0.0209,-0.0361,-0.036,-0.0359,-0.0358,0,0,-0.039,-0.0438,-0.0444,-0.0466,-0.0482,-0.0497,-0.0521,-0.0535,-0.0543,-0.0535,-0.0536,-0.0539,-0.0512,-0.0502,-0.0478,-0.0435,-0.0364,-0.0389,-0.0385,-0.0273,-0.0199,-0.0212,-0.0196,-0.0363,-0.0361,-0.0361,-0.011,0,-0.0425,-0.0486,-0.0498,-0.0548,-0.0577,-0.0573,-0.0598,-0.0604,-0.0595,-0.0589,-0.0561,-0.0556,-0.0541,-0.053,-0.049,-0.0402,-0.0333,-0.0427,-0.0197,-0.0189,-0.0191,-0.0185,-0.0357,-0.0099,-0.0096,-0.0093,-0.0091,0,-0.0464,-0.0501,-0.0561,-0.0608,-0.0619,-0.0644,-0.0667,-0.0686,-0.0669,-0.0658,-0.0635,-0.06,-0.0548,-0.0533,-0.0374,-0.0428,-0.0318,-0.0238,-0.0226,-0.0208,-0.0178,-0.0073,-0.0064,-0.0066,-0.0068,-0.007,-0.0072,0,-0.0479,-0.0543,-0.0594,-0.0611,-0.0658,-0.0684,-0.0705,-0.0707,-0.0715,-0.0692,-0.067,-0.0612,-0.0555,-0.0446,-0.0301,-0.0323,-0.0095,-0.0107,0.0001,0.0005,-0.0025,-0.0029,0.002,0.002,0.0019,0.0019,0.0018,0,-0.051,-0.0552,-0.0609,-0.0637,-0.0695,-0.0713,-0.0753,-0.0763,-0.0752,-0.074,-0.0704,-0.0652,-0.053,-0.0397,-0.0278,-0.0087,-0.0072,0.0014,0.0056,-0.0054,-0.0065,-0.0011,-0.0018,0.0028,0.0026,0.0024,0.0023,0,-0.0521,-0.0559,-0.0622,-0.0685,-0.0705,-0.0746,-0.0788,-0.0807,-0.0791,-0.0764,-0.0753,-0.0643,-0.0469,-0.0329,-0.0111,-0.004,0.0123,0.019,0.0112,0.0143,0.0204,0.019,0.0351,0.0352,0.0353,0.0354,0.0355,0,-0.0536,-0.0569,-0.0653,-0.0691,-0.0725,-0.0781,-0.0816,-0.083,-0.083,-0.0747,-0.0719,-0.0557,-0.047,-0.014,-0.0023,0.0217,0.0227,0.0323,0.021,0.0207,0.0233,0.0217,0.0202,0.0357,0.0357,0.0357,0.0358,0,-0.0557,-0.0588,-0.0638,-0.0716,-0.0769,-0.0823,-0.0859,-0.0852,-0.0837,-0.0815,-0.0653,-0.0507,-0.0296,-0.0102,0.008,0.0234,0.0248,0.0336,0.0334,0.0228,0.0216,0.0237,0.0221,0.0361,0.0361,0.0361,0.036,0,-0.0567,-0.0607,-0.067,-0.0734,-0.0801,-0.0839,-0.0862,-0.0828,-0.0813,-0.071,-0.0641,-0.0441,-0.0316,-0.0086,0.0076,0.0218,0.0241,0.026,0.0262,0.0259,0.0112,0.0075,0.0229,0,0,0,0,0,-0.0573,-0.0615,-0.0681,-0.0755,-0.0818,-0.0854,-0.0878,-0.0883,-0.0847,-0.0728,-0.0681,-0.0487,-0.0224,-0.0105,0.0044,0.0063,0.0234,0.0235,0.0248,0.0383,0.0379,0.0213,0,0,0,0,0,0,-0.058,-0.0641,-0.0678,-0.0751,-0.08,-0.0866,-0.0881,-0.0861,-0.0781,-0.0713,-0.0558,-0.0474,-0.0212,-0.0299,0.0044,0.0085,0.0106,0.0361,0.0363,0.0386,0.0382,0.0378,0.0206,0,0,0,0,0]}]]